Location: Bacharowice
(49.9333°N, 19.5833°E)
Time: 06:59:03
(UTC+00:00)

Cosmos 2344 - Pass Details

Date: 28 September 2021
Orbit: 1235 x 3007 km, 63.3° (Epoch: 19 October)

Event Time Altitude Azimuth Distance (km) Brightness Sun altitude
Rises 18:39:50 0° 295° (WNW) 4,217 7.9 -21.8°
Reaches altitude 10° 18:42:45 10° 305° (NW) 3,322 6.9 -22.2°
Maximum altitude 18:49:56 35° 11° (N) 2,215 4.9 -23.3°
Enters shadow 18:56:40 17° 67° (ENE) 3,513 5.5 -24.2°
